[[{"header":{"parameterUnit":"m.s-1","parameterCategory":1,"la1":30.2991,"la2":30.254,"lo1":-89.0895,"lo2":-89.0444,"dy":0.0017,"dx":0.0017,"nx":28,"ny":28,"refTime":"2025-02-24T03:00:00:Z","depth":0,"parameterNumber":2,"parameterNumberName":"U-component_of_WINDS"},"data":[0,0,0,0,0,0,0,0,0,0,0,0,0,0,0,0,0,0,0,0,0,0,0,0,0,0,0,0,0,0,0,0,0,0,0,0,0,0,0,0,0,0,0,0,0,0,0,0,0,0,0,0,0,0,0,0,0,0,-1.4566,-1.4565,0,-1.4526,-1.4525,-1.4525,-1.446,-1.4459,-1.4458,-1.4457,-1.4416,-1.4416,-1.4416,0,0,0,0,0,0,0,0,0,0,0,0,0,-1.4586,-1.4586,-1.4566,-1.4565,-1.4565,-1.4526,-1.4525,-1.4525,-1.446,-1.4459,-1.4457,-1.4456,-1.4416,-1.4416,-1.4416,0,0,0,0,0,0,0,0,0,0,0,0,0,-1.4565,-1.4586,-1.4566,-1.4528,-1.4524,-1.4526,-1.4525,-1.4525,-1.4461,-1.4459,-1.4457,-1.4455,-1.4416,-1.4416,-1.4416,-1.4451,0,0,-1.4416,-1.4416,0,0,0,0,0,0,0,0,-1.4566,-1.4564,-1.4534,-1.453,-1.4526,-1.4496,-1.4517,-1.45,-1.4461,-1.4485,-1.4457,-1.4455,-1.4444,-1.4441,-1.4438,-1.4449,-1.4447,-1.4416,-1.4416,-1.4416,-1.4416,0,0,0,0,0,0,0,-1.4568,-1.4566,-1.455,-1.4534,-1.4529,-1.4513,-1.4508,-1.4514,-1.4475,-1.4483,-1.4478,-1.4474,-1.4441,-1.4438,-1.4436,-1.4447,-1.4416,-1.4416,-1.4416,-1.4416,-1.4486,-1.4488,0,0,0,0,0,0,-1.4575,-1.4567,-1.4551,-1.4549,-1.4542,-1.4514,-1.4508,-1.4508,-1.4474,-1.4468,-1.4476,-1.4471,-1.4439,-1.4436,-1.4435,-1.4474,-1.4416,-1.4416,-1.4416,-1.4485,-1.4487,-1.4489,0,0,0,0,0,0,-1.4576,-1.4574,-1.4553,-1.4557,-1.4553,-1.4516,-1.4515,-1.4508,-1.4504,-1.4469,-1.4462,-1.4479,-1.4437,-1.4435,-1.4448,-1.4472,-1.4416,-1.4416,-1.4482,-1.4485,-1.4488,-1.4555,0,0,0,0,0,0,-1.4577,-1.4575,-1.4588,-1.4558,-1.4553,-1.4567,-1.4517,-1.4508,-1.4504,-1.4498,-1.4471,-1.4464,-1.4436,-1.4448,-1.4448,-1.4471,-1.4416,-1.448,-1.4484,-1.4487,-1.455,-1.4559,-1.4567,0,0,0,0,0,-1.4577,-1.4608,-1.4589,-1.4587,-1.4568,-1.4568,-1.4565,-1.4532,-1.4507,-1.452,-1.4497,-1.4465,-1.447,-1.445,-1.4449,-1.4473,-1.4478,-1.4483,-1.4487,-1.4546,-1.4558,-1.4567,0,0,0,0,0,0,-1.4642,-1.4603,-1.4581,-1.4603,-1.4589,-1.4557,-1.4572,-1.4545,-1.4538,-1.4532,-1.4491,-1.4485,-1.4504,-1.449,-1.4468,-1.4506,-1.4469,-1.4473,-1.4515,-1.4525,-1.4534,-1.4537,-1.4416,0,0,0,0,0,-1.4658,-1.4661,-1.4628,-1.465,-1.4644,-1.461,-1.4608,-1.4584,-1.4568,-1.4562,-1.454,-1.4526,-1.4524,-1.4524,-1.452,-1.4548,-1.4541,-1.4564,-1.4573,-1.458,-1.4584,-1.4598,-1.4608,-1.4503,-1.4503,-1.4503,0,0,-1.4693,-1.4672,-1.4676,-1.4662,-1.4649,-1.4653,-1.4605,-1.4611,-1.4614,-1.4563,-1.4574,-1.4558,-1.4539,-1.456,-1.4568,-1.4549,-1.4612,-1.4585,-1.4591,-1.4591,-1.4603,-1.4613,-1.4622,-1.4506,-1.4505,-1.4505,0,0,-1.4757,-1.4742,-1.4759,-1.4747,-1.4727,-1.4704,-1.4709,-1.4681,-1.4668,-1.4679,-1.4641,-1.4644,-1.4641,-1.463,-1.4624,-1.4686,-1.4656,-1.4686,-1.4731,-1.4745,-1.4754,-1.4761,-1.4783,-1.4792,-1.469,-1.469,-1.469,0,-1.4803,-1.4807,-1.4771,-1.4781,-1.4776,-1.473,-1.4747,-1.4737,-1.4717,-1.4715,-1.4694,-1.469,-1.4675,-1.4692,-1.4708,-1.4704,-1.4708,-1.4689,-1.4755,-1.4762,-1.4768,-1.4789,-1.4798,-1.4694,-1.4694,-1.4693,-1.4693,0,-1.4864,-1.4868,-1.4884,-1.4867,-1.4864,-1.4877,-1.4844,-1.4845,-1.4821,-1.4801,-1.4813,-1.4792,-1.4784,-1.4787,-1.4763,-1.4802,-1.479,-1.4763,-1.4725,-1.4783,-1.4802,-1.4809,-1.4699,-1.4698,-1.4697,-1.4696,0,0,-1.4967,-1.4931,-1.4937,-1.4929,-1.4905,-1.4907,-1.4919,-1.4911,-1.4913,-1.4902,-1.491,-1.491,-1.4885,-1.4878,-1.4853,-1.4866,-1.4917,-1.4837,-1.4836,-1.4853,-1.4959,-1.498,-1.4989,-1.4898,-1.4899,-1.49,-1.496,0,-1.5027,-1.5044,-1.5013,-1.5038,-1.5041,-1.4998,-1.5008,-1.4995,-1.4977,-1.4977,-1.4956,-1.4957,-1.4924,-1.4919,-1.493,-1.4909,-1.4938,-1.4904,-1.4906,-1.4906,-1.4911,-1.4999,-1.5021,-1.5079,-1.4968,-1.4969,-1.497,0,-1.5099,-1.5091,-1.5117,-1.5092,-1.5092,-1.5102,-1.5092,-1.5093,-1.5078,-1.5063,-1.5057,-1.5027,-1.5037,-1.5001,-1.5014,-1.4992,-1.4991,-1.4981,-1.4982,-1.4981,-1.4941,-1.5,-1.5096,-1.5105,-1.4981,-1.498,-1.4979,0,-1.5172,-1.5168,-1.5183,-1.5177,-1.5148,-1.5156,-1.5145,-1.5127,-1.5125,-1.5117,-1.5115,-1.5109,-1.5105,-1.5101,-1.5071,-1.5047,-1.5088,-1.5049,-1.5077,-1.5078,-1.5087,-1.5087,-1.5184,-1.5087,-1.5087,-1.5086,-1.5086,0,-1.5242,-1.5259,-1.5215,-1.5224,-1.5243,-1.5207,-1.5226,-1.521,-1.5195,-1.5201,-1.5163,-1.5169,-1.5129,-1.5131,-1.5108,-1.5123,-1.5122,-1.5111,-1.5104,-1.5114,-1.5115,-1.5112,-1.5108,-1.5089,-1.5088,-1.5088,-1.5087,0,-1.5326,-1.5297,-1.5311,-1.5283,-1.5276,-1.5291,-1.5267,-1.5275,-1.5254,-1.5262,-1.5262,-1.523,-1.523,-1.52,-1.5194,-1.5179,-1.5204,-1.519,-1.5209,-1.5205,-1.5234,-1.5232,-1.5333,-1.5344,-1.524,-1.5241,-1.5242,0,-1.5372,-1.5385,-1.5358,-1.5359,-1.535,-1.5352,-1.535,-1.5315,-1.5314,-1.5298,-1.5308,-1.5305,-1.5301,-1.5304,-1.528,-1.5276,-1.5262,-1.5298,-1.5261,-1.5271,-1.5263,-1.5262,-1.5264,-1.5305,-1.5307,-1.5308,-1.5309,0,-1.5458,-1.5443,-1.5441,-1.5435,-1.5434,-1.5427,-1.5418,-1.5421,-1.5383,-1.5384,-1.5385,-1.5382,-1.5376,-1.5375,-1.5366,-1.5354,-1.5326,-1.5321,-1.5327,-1.5337,-1.5347,-1.5342,-1.523,-1.5318,-1.5317,-1.5317,-1.5316,-1.5316,-1.5524,-1.5534,-1.5517,-1.5516,-1.5506,-1.5499,-1.5504,-1.5485,-1.5485,-1.5478,-1.5458,-1.5462,-1.5446,-1.5432,-1.5423,-1.5425,-1.5408,-1.5416,-1.5419,-1.5421,-1.5427,-1.5347,-1.5424,-1.5423,-1.5423,-1.5423,-1.5423,0,-1.5608,-1.5595,-1.5595,-1.5584,-1.5584,-1.5557,-1.5546,-1.5548,-1.5552,-1.554,-1.5537,-1.5538,-1.5536,-1.5513,-1.5509,-1.5515,-1.5502,-1.5516,-1.5515,-1.5512,-1.5443,-1.5438,-1.5526,-1.5526,-1.5526,-1.5526,-1.5526,-1.5526,-1.5651,-1.5666,-1.565,-1.5659,-1.5646,-1.565,-1.5646,-1.5639,-1.5629,-1.5632,-1.5631,-1.5616,-1.5599,-1.5594,-1.5592,-1.5585,-1.5585,-1.5603,-1.5592,-1.5527,-1.5517,-1.5508,-1.5503,-1.5603,-1.5603,-1.5661,-1.5661,-1.5662]},{"header":{"parameterUnit":"m.s-1","parameterCategory":1,"la1":30.2991,"la2":30.254,"lo1":-89.0895,"lo2":-89.0444,"dy":0.0017,"dx":0.0017,"nx":28,"ny":28,"refTime":"2025-02-24T03:00:00:Z","depth":0,"parameterNumber":3,"parameterNumberName":"V-component_of_WINDS"},"data":[0,0,0,0,0,0,0,0,0,0,0,0,0,0,0,0,0,0,0,0,0,0,0,0,0,0,0,0,0,0,0,0,0,0,0,0,0,0,0,0,0,0,0,0,0,0,0,0,0,0,0,0,0,0,0,0,0,0,-2.5403,-2.5404,0,-2.5454,-2.5455,-2.5455,-2.5388,-2.5386,-2.5383,-2.5381,-2.543,-2.5433,-2.5437,0,0,0,0,0,0,0,0,0,0,0,0,0,-2.5243,-2.5247,-2.5403,-2.5404,-2.5404,-2.5454,-2.5455,-2.5455,-2.5389,-2.5386,-2.5383,-2.538,-2.5429,-2.5433,-2.5437,0,0,0,0,0,0,0,0,0,0,0,0,0,-2.5305,-2.5248,-2.5403,-2.5377,-2.5375,-2.5454,-2.5455,-2.5456,-2.5389,-2.5385,-2.5382,-2.5378,-2.5427,-2.5433,-2.5438,-2.5543,0,0,-2.5454,-2.5456,0,0,0,0,0,0,0,0,-2.5302,-2.5311,-2.538,-2.5379,-2.5377,-2.5411,-2.5416,-2.5485,-2.539,-2.5384,-2.5381,-2.5377,-2.5426,-2.5432,-2.5449,-2.5546,-2.5548,-2.5455,-2.5458,-2.546,-2.5462,0,0,0,0,0,0,0,-2.5298,-2.5309,-2.5423,-2.5381,-2.5379,-2.5361,-2.5366,-2.5429,-2.5425,-2.5384,-2.5379,-2.5386,-2.5425,-2.5444,-2.545,-2.5548,-2.5454,-2.5459,-2.5462,-2.5465,-2.5733,-2.5737,0,0,0,0,0,0,-2.5297,-2.5306,-2.5422,-2.5425,-2.533,-2.5367,-2.5373,-2.5404,-2.5424,-2.5423,-2.5389,-2.5383,-2.5437,-2.5443,-2.5451,-2.5576,-2.546,-2.5465,-2.5468,-2.5729,-2.5734,-2.5738,0,0,0,0,0,0,-2.5294,-2.5308,-2.5419,-2.5364,-2.5377,-2.5374,-2.5409,-2.5407,-2.5426,-2.5428,-2.5426,-2.541,-2.5434,-2.5444,-2.5521,-2.5577,-2.5468,-2.5472,-2.5725,-2.5731,-2.5736,-2.5827,0,0,0,0,0,0,-2.529,-2.5307,-2.5349,-2.5365,-2.538,-2.549,-2.5413,-2.541,-2.5436,-2.5428,-2.5447,-2.5447,-2.5432,-2.5513,-2.5526,-2.5582,-2.5477,-2.572,-2.5727,-2.5734,-2.5819,-2.5835,-2.5849,0,0,0,0,0,-2.5284,-2.5372,-2.5351,-2.5365,-2.5432,-2.5494,-2.5502,-2.5484,-2.5441,-2.5481,-2.5482,-2.5446,-2.5568,-2.5522,-2.5536,-2.5594,-2.5716,-2.5725,-2.5734,-2.5812,-2.5832,-2.5849,0,0,0,0,0,0,-2.536,-2.5373,-2.5351,-2.5446,-2.547,-2.5482,-2.5533,-2.5505,-2.5541,-2.5532,-2.5507,-2.5512,-2.5595,-2.5601,-2.555,-2.5697,-2.5635,-2.5647,-2.569,-2.5709,-2.5723,-2.572,-2.5481,0,0,0,0,0,-2.5388,-2.5439,-2.5447,-2.553,-2.5543,-2.5536,-2.5562,-2.5547,-2.5569,-2.5578,-2.5585,-2.5607,-2.565,-2.5679,-2.5719,-2.5819,-2.5822,-2.5866,-2.5881,-2.5893,-2.5904,-2.5957,-2.5977,-2.5767,-2.5767,-2.5767,0,0,-2.5447,-2.546,-2.5493,-2.5546,-2.5562,-2.5614,-2.5545,-2.5602,-2.564,-2.5587,-2.5661,-2.5666,-2.5689,-2.5778,-2.5818,-2.5787,-2.5963,-2.5904,-2.5914,-2.5919,-2.5968,-2.5988,-2.6006,-2.5773,-2.5772,-2.5771,0,0,-2.558,-2.5595,-2.5666,-2.5684,-2.5709,-2.5704,-2.5721,-2.5738,-2.574,-2.5814,-2.5774,-2.5818,-2.5893,-2.5911,-2.593,-2.6069,-2.6037,-2.6082,-2.6161,-2.6213,-2.623,-2.6244,-2.6294,-2.6312,-2.6093,-2.6093,-2.6093,0,-2.5649,-2.5727,-2.5706,-2.5767,-2.5791,-2.5745,-2.5816,-2.5834,-2.5871,-2.5888,-2.5852,-2.5945,-2.5958,-2.605,-2.6084,-2.6101,-2.6119,-2.608,-2.6229,-2.6243,-2.6257,-2.6304,-2.6323,-2.6098,-2.6098,-2.6097,-2.6097,0,-2.581,-2.5864,-2.5918,-2.5957,-2.5986,-2.6052,-2.604,-2.6072,-2.6053,-2.6051,-2.6127,-2.6139,-2.6181,-2.6201,-2.6183,-2.6292,-2.6272,-2.6233,-2.6171,-2.6282,-2.6326,-2.6344,-2.6106,-2.6104,-2.6102,-2.6101,0,0,-2.5994,-2.6019,-2.604,-2.6056,-2.608,-2.6121,-2.6184,-2.6226,-2.6254,-2.628,-2.6332,-2.6396,-2.636,-2.6382,-2.6365,-2.641,-2.652,-2.6366,-2.6366,-2.6395,-2.664,-2.667,-2.6691,-2.6498,-2.6501,-2.6504,-2.6638,0,-2.6127,-2.6238,-2.6221,-2.6327,-2.6377,-2.6333,-2.6387,-2.6407,-2.6407,-2.6448,-2.6446,-2.6492,-2.6441,-2.6454,-2.6497,-2.6497,-2.6569,-2.6487,-2.6546,-2.6548,-2.6543,-2.6714,-2.6746,-2.6872,-2.6655,-2.6658,-2.666,0,-2.6298,-2.6332,-2.6444,-2.646,-2.648,-2.653,-2.6566,-2.6606,-2.6627,-2.6623,-2.6647,-2.6622,-2.6683,-2.6618,-2.6702,-2.6647,-2.6669,-2.6673,-2.6677,-2.6683,-2.6612,-2.6725,-2.6912,-2.6931,-2.6687,-2.6685,-2.6683,0,-2.6422,-2.6495,-2.6572,-2.6587,-2.6608,-2.6643,-2.6653,-2.6671,-2.6697,-2.6728,-2.6744,-2.6782,-2.6803,-2.6832,-2.6817,-2.6771,-2.6903,-2.6837,-2.6902,-2.6902,-2.6933,-2.6931,-2.7127,-2.6945,-2.6945,-2.6945,-2.6944,0,-2.6574,-2.6644,-2.6628,-2.6675,-2.6752,-2.673,-2.6806,-2.6811,-2.6827,-2.6873,-2.6836,-2.688,-2.6857,-2.6898,-2.6886,-2.6958,-2.6967,-2.6965,-2.6962,-2.697,-2.697,-2.6985,-2.6976,-2.695,-2.6948,-2.6947,-2.6947,0,-2.6726,-2.6718,-2.6799,-2.6811,-2.6816,-2.6872,-2.6882,-2.6926,-2.6922,-2.698,-2.6993,-2.6987,-2.7034,-2.7021,-2.7072,-2.7064,-2.7154,-2.7138,-2.7148,-2.7145,-2.721,-2.7204,-2.7423,-2.7451,-2.725,-2.7252,-2.7254,0,-2.6824,-2.6878,-2.6896,-2.6925,-2.6938,-2.6985,-2.7012,-2.6991,-2.702,-2.7048,-2.7088,-2.7132,-2.7166,-2.7243,-2.7243,-2.7281,-2.7267,-2.7341,-2.7272,-2.7279,-2.7269,-2.7267,-2.7272,-2.7355,-2.7357,-2.7359,-2.736,0,-2.7,-2.6993,-2.7033,-2.7073,-2.7105,-2.7135,-2.7161,-2.7186,-2.7167,-2.7202,-2.725,-2.7277,-2.7329,-2.7373,-2.7408,-2.7416,-2.7386,-2.7382,-2.7399,-2.7408,-2.7412,-2.7412,-2.7186,-2.7377,-2.7375,-2.7374,-2.7373,-2.7373,-2.7128,-2.7174,-2.7194,-2.724,-2.7257,-2.7282,-2.7324,-2.7325,-2.7366,-2.7408,-2.7392,-2.7448,-2.7466,-2.751,-2.7523,-2.7565,-2.7537,-2.7562,-2.7568,-2.7575,-2.7584,-2.7404,-2.7571,-2.7571,-2.7571,-2.757,-2.757,0,-2.7302,-2.7313,-2.7356,-2.7394,-2.743,-2.7398,-2.7424,-2.7456,-2.7506,-2.7526,-2.7561,-2.7616,-2.7659,-2.7661,-2.77,-2.7734,-2.7721,-2.7745,-2.7743,-2.7746,-2.7606,-2.7588,-2.7755,-2.7755,-2.7755,-2.7755,-2.7755,-2.7755,-2.7397,-2.7473,-2.7468,-2.7551,-2.756,-2.7616,-2.7634,-2.7656,-2.7672,-2.7736,-2.7772,-2.7773,-2.7786,-2.7826,-2.7863,-2.7862,-2.7879,-2.7909,-2.7903,-2.7774,-2.7755,-2.7738,-2.7721,-2.7912,-2.7913,-2.8039,-2.804,-2.8041]}]]